When you browse on this site, cookies collect data to enhance your experience and personalize the content and advertising you see.
Visit our Privacy Policy to learn more. By continuing to use the site, you agree to this use of cookies and data.
  • In Hungary
  • List of Countries
  • For 7 days
  • Water Temperature
  • Weather Map
  • News
  • Weather Widgets
  • user-avatar
    Login

    Hourly Weather Zelenyi Yar

    Today, 25 August, Sunday

    Time Temperature Precipitation Wind Pressure Humidity
    00:00 +22°C° 0 mm 4 mps 752 mmHg 60%
    01:00 +22°C° 0 mm 4 mps 752 mmHg 64%
    02:00 +21°C° 0 mm 4 mps 753 mmHg 68%
    03:00 +20°C° 0 mm 4 mps 753 mmHg 68%
    04:00 +20°C° 0 mm 4 mps 753 mmHg 69%
    05:00 +20°C° 0 mm 4 mps 753 mmHg 69%
    06:00 +21°C° 0 mm 4 mps 753 mmHg 64%
    07:00 +22°C° 0 mm 4 mps 753 mmHg 58%
    08:00 +25°C° 0 mm 5 mps 753 mmHg 53%
    09:00 +26°C° 0 mm 5 mps 753 mmHg 47%
    10:00 +28°C° 0 mm 5 mps 753 mmHg 41%
    11:00 +30°C° 0 mm 5 mps 753 mmHg 35%
    12:00 +32°C° 0 mm 5 mps 753 mmHg 31%
    13:00 +32°C° 0 mm 5 mps 753 mmHg 28%
    14:00 +33°C° 0 mm 5 mps 753 mmHg 25%
    15:00 +32°C° 0 mm 5 mps 753 mmHg 25%
    16:00 +32°C° 0 mm 5 mps 752 mmHg 25%
    17:00 +30°C° 0 mm 4 mps 752 mmHg 25%
    18:00 +28°C° 0 mm 4 mps 753 mmHg 28%
    19:00 +26°C° 0 mm 4 mps 753 mmHg 32%
    20:00 +23°C° 0 mm 4 mps 753 mmHg 36%
    21:00 +22°C° 0 mm 4 mps 753 mmHg 40%
    22:00 +21°C° 0 mm 4 mps 753 mmHg 43%
    23:00 +20°C° 0 mm 4 mps 754 mmHg 46%

    Tomorrow, 26 August, Monday

    Time Temperature Precipitation Wind Pressure Humidity
    00:00 +20°C° 0 mm 4 mps 754 mmHg 51%
    01:00 +19°C° 0 mm 4 mps 754 mmHg 56%
    02:00 +18°C° 0 mm 4 mps 754 mmHg 61%
    03:00 +18°C° 0 mm 4 mps 754 mmHg 65%
    04:00 +17°C° 0 mm 4 mps 754 mmHg 70%
    05:00 +17°C° 0 mm 4 mps 754 mmHg 75%
    06:00 +19°C° 0 mm 4 mps 754 mmHg 68%
    07:00 +21°C° 0 mm 5 mps 754 mmHg 62%
    08:00 +23°C° 0 mm 5 mps 754 mmHg 56%
    09:00 +25°C° 0 mm 5 mps 754 mmHg 50%
    10:00 +27°C° 0 mm 5 mps 754 mmHg 45%
    11:00 +29°C° 0 mm 5 mps 754 mmHg 39%
    12:00 +29°C° 0 mm 5 mps 754 mmHg 38%
    13:00 +30°C° 0 mm 5 mps 754 mmHg 36%
    14:00 +32°C° 0 mm 5 mps 753 mmHg 34%
    15:00 +30°C° 0 mm 5 mps 753 mmHg 35%
    16:00 +30°C° 0 mm 5 mps 752 mmHg 36%
    17:00 +29°C° 0 mm 4 mps 752 mmHg 37%
    18:00 +27°C° 0 mm 4 mps 752 mmHg 42%
    19:00 +25°C° 0 mm 4 mps 753 mmHg 47%
    20:00 +24°C° 0 mm 3 mps 753 mmHg 52%
    21:00 +22°C° 0 mm 3 mps 753 mmHg 53%
    22:00 +21°C° 0 mm 3 mps 753 mmHg 55%
    23:00 +20°C° 0 mm 3 mps 753 mmHg 56%

    Day after tomorrow, 27 August, Tuesday

    Time Temperature Precipitation Wind Pressure Humidity
    00:00 +20°C° 0 mm 3 mps 753 mmHg 56%
    01:00 +19°C° 0 mm 3 mps 753 mmHg 55%
    02:00 +18°C° 0 mm 3 mps 753 mmHg 55%
    03:00 +18°C° 0 mm 3 mps 753 mmHg 57%
    04:00 +17°C° 0 mm 3 mps 753 mmHg 58%
    05:00 +17°C° 0 mm 3 mps 752 mmHg 59%
    06:00 +19°C° 0 mm 3 mps 753 mmHg 54%
    07:00 +21°C° 0 mm 3 mps 753 mmHg 48%
    08:00 +23°C° 0 mm 4 mps 753 mmHg 43%
    09:00 +25°C° 0 mm 4 mps 753 mmHg 39%
    10:00 +27°C° 0 mm 4 mps 752 mmHg 35%
    11:00 +28°C° 0 mm 4 mps 752 mmHg 30%
    12:00 +29°C° 0 mm 4 mps 752 mmHg 29%
    13:00 +29°C° 0 mm 4 mps 752 mmHg 27%
    14:00 +30°C° 0 mm 4 mps 751 mmHg 25%
    15:00 +30°C° 0 mm 4 mps 751 mmHg 26%
    16:00 +29°C° 0 mm 4 mps 751 mmHg 26%
    17:00 +29°C° 0 mm 4 mps 751 mmHg 27%
    18:00 +27°C° 0 mm 4 mps 751 mmHg 31%
    19:00 +25°C° 0 mm 4 mps 751 mmHg 36%
    20:00 +21°C° 0 mm 4 mps 751 mmHg 41%
    21:00 +21°C° 0 mm 3 mps 751 mmHg 45%
    22:00 +20°C° 0 mm 3 mps 752 mmHg 49%
    23:00 +19°C° 0 mm 3 mps 752 mmHg 52%

    28 August, Wednesday

    Time Temperature Precipitation Wind Pressure Humidity
    00:00 +18°C° 0 mm 3 mps 752 mmHg 56%
    01:00 +18°C° 0 mm 3 mps 751 mmHg 60%
    02:00 +17°C° 0 mm 3 mps 751 mmHg 64%
    03:00 +17°C° 0 mm 3 mps 751 mmHg 68%
    04:00 +17°C° 0 mm 3 mps 752 mmHg 72%
    05:00 +16°C° 0 mm 3 mps 752 mmHg 76%
    06:00 +18°C° 0 mm 3 mps 752 mmHg 71%
    07:00 +20°C° 0 mm 3 mps 752 mmHg 67%
    08:00 +22°C° 0 mm 4 mps 752 mmHg 62%
    09:00 +25°C° 0 mm 4 mps 752 mmHg 56%
    10:00 +26°C° 0 mm 4 mps 752 mmHg 49%
    11:00 +27°C° 0 mm 5 mps 752 mmHg 43%
    12:00 +28°C° 0 mm 4 mps 751 mmHg 40%
    13:00 +28°C° 0 mm 4 mps 751 mmHg 38%
    14:00 +28°C° 0 mm 4 mps 750 mmHg 35%
    15:00 +28°C° 0 mm 4 mps 750 mmHg 34%
    16:00 +28°C° 0 mm 4 mps 750 mmHg 33%
    17:00 +27°C° 0 mm 5 mps 750 mmHg 32%
    18:00 +25°C° 0 mm 4 mps 751 mmHg 36%
    19:00 +23°C° 0 mm 4 mps 751 mmHg 40%
    20:00 +21°C° 0 mm 4 mps 751 mmHg 44%
    21:00 +20°C° 0 mm 4 mps 751 mmHg 46%
    22:00 +19°C° 0 mm 5 mps 751 mmHg 47%
    23:00 +17°C° 0 mm 5 mps 752 mmHg 49%

    29 August, Thursday

    Time Temperature Precipitation Wind Pressure Humidity
    00:00 +17°C° 0 mm 4 mps 752 mmHg 49%
    01:00 +15°C° 0 mm 4 mps 752 mmHg 50%
    02:00 +15°C° 0 mm 4 mps 752 mmHg 51%
    03:00 +14°C° 0 mm 4 mps 752 mmHg 50%
    04:00 +13°C° 0 mm 4 mps 752 mmHg 49%
    05:00 +13°C° 0 mm 4 mps 752 mmHg 48%
    06:00 +14°C° 0 mm 4 mps 752 mmHg 45%
    07:00 +15°C° 0 mm 5 mps 752 mmHg 42%
    08:00 +16°C° 0 mm 5 mps 753 mmHg 39%
    09:00 +17°C° 0 mm 5 mps 753 mmHg 37%
    10:00 +19°C° 0 mm 5 mps 753 mmHg 34%
    11:00 +20°C° 0 mm 5 mps 753 mmHg 32%
    12:00 +21°C° 0 mm 5 mps 753 mmHg 30%
    13:00 +21°C° 0 mm 5 mps 752 mmHg 29%
    14:00 +22°C° 0 mm 5 mps 752 mmHg 27%
    15:00 +21°C° 0 mm 5 mps 752 mmHg 28%
    16:00 +21°C° 0 mm 5 mps 752 mmHg 29%
    17:00 +21°C° 0 mm 5 mps 752 mmHg 31%
    18:00 +19°C° 0 mm 4 mps 752 mmHg 34%
    19:00 +17°C° 0 mm 4 mps 752 mmHg 38%
    20:00 +16°C° 0 mm 3 mps 752 mmHg 42%
    21:00 +14°C° 0 mm 3 mps 752 mmHg 45%
    22:00 +13°C° 0 mm 3 mps 752 mmHg 48%
    23:00 +13°C° 0 mm 3 mps 753 mmHg 51%

    30 August, Friday

    Time Temperature Precipitation Wind Pressure Humidity
    00:00 +12°C° 0 mm 3 mps 753 mmHg 54%
    01:00 +12°C° 0 mm 3 mps 753 mmHg 56%
    02:00 +11°C° 0 mm 3 mps 753 mmHg 59%
    03:00 +10°C° 0 mm 4 mps 753 mmHg 62%
    04:00 +10°C° 0 mm 4 mps 753 mmHg 64%
    05:00 +8°C° 0 mm 4 mps 753 mmHg 66%
    06:00 +11°C° 0 mm 4 mps 753 mmHg 60%
    07:00 +13°C° 0 mm 4 mps 754 mmHg 54%
    08:00 +14°C° 0 mm 5 mps 754 mmHg 49%
    09:00 +16°C° 0 mm 5 mps 754 mmHg 43%
    10:00 +19°C° 0 mm 5 mps 754 mmHg 37%
    11:00 +20°C° 0 mm 6 mps 754 mmHg 31%
    12:00 +21°C° 0 mm 5 mps 754 mmHg 28%
    13:00 +22°C° 0 mm 5 mps 753 mmHg 26%
    14:00 +23°C° 0 mm 5 mps 753 mmHg 23%
    15:00 +22°C° 0 mm 5 mps 753 mmHg 24%
    16:00 +22°C° 0 mm 4 mps 753 mmHg 24%
    17:00 +21°C° 0 mm 4 mps 752 mmHg 25%
    18:00 +19°C° 0 mm 3 mps 753 mmHg 29%
    19:00 +17°C° 0 mm 3 mps 753 mmHg 34%
    20:00 +15°C° 0 mm 2 mps 753 mmHg 38%
    21:00 +14°C° 0 mm 2 mps 753 mmHg 40%
    22:00 +14°C° 0 mm 2 mps 753 mmHg 42%
    23:00 +13°C° 0 mm 2 mps 753 mmHg 44%
    Show more